When you browse on this site, cookies collect data to enhance your experience and personalize the content and advertising you see.
Visit our Privacy Policy to learn more. By continuing to use the site, you agree to this use of cookies and data.
  • în România
  • Lista ţărilor
  • Pe 7 zile
  • Temperatura apei
  • Hartă satelitară
  • Meteo pe hartă
  • Widget-uri
  • user-avatar
    Intrare

    Meteo pe oră la Pleven

    Astăzi, 19 Aprilie, Vineri

    Timp Temperatura Precipitaţii Vânt Presiune Umiditate
    00:00 +6°C° 0 mm 1 m/s 754 mmHg 91%
    01:00 +6°C° 0 mm 1 m/s 753 mmHg 89%
    02:00 +6°C° 0 mm 1 m/s 753 mmHg 88%
    03:00 +6°C° 0 mm 1 m/s 753 mmHg 87%
    04:00 +6°C° 0 mm 1 m/s 753 mmHg 85%
    05:00 +6°C° 0 mm 1 m/s 753 mmHg 83%
    06:00 +8°C° 0 mm 1 m/s 753 mmHg 80%
    07:00 +9°C° 0 mm 1 m/s 753 mmHg 76%
    08:00 +9°C° 0 mm 2 m/s 752 mmHg 73%
    09:00 +12°C° 0 mm 2 m/s 752 mmHg 66%
    10:00 +13°C° 0 mm 3 m/s 752 mmHg 59%
    11:00 +14°C° 0 mm 3 m/s 751 mmHg 53%
    12:00 +15°C° 0 mm 4 m/s 751 mmHg 51%
    13:00 +17°C° 0 mm 4 m/s 750 mmHg 49%
    14:00 +18°C° 0 mm 4 m/s 750 mmHg 47%
    15:00 +18°C° 0 mm 4 m/s 749 mmHg 49%
    16:00 +18°C° 0 mm 4 m/s 749 mmHg 50%
    17:00 +18°C° 0 mm 4 m/s 749 mmHg 51%
    18:00 +14°C° 1.1 mm 4 m/s 749 mmHg 63%
    19:00 +12°C° 1.1 mm 3 m/s 749 mmHg 75%
    20:00 +10°C° 1.1 mm 2 m/s 750 mmHg 88%
    21:00 +9°C° 0.2 mm 2 m/s 750 mmHg 88%
    22:00 +9°C° 0.2 mm 2 m/s 751 mmHg 88%
    23:00 +9°C° 0.2 mm 1 m/s 751 mmHg 88%

    Mâine, 20 Aprilie, Sâmbătă

    Timp Temperatura Precipitaţii Vânt Presiune Umiditate
    00:00 +9°C° 0 mm 1 m/s 752 mmHg 88%
    01:00 +9°C° 0 mm 1 m/s 752 mmHg 88%
    02:00 +9°C° 0 mm 1 m/s 752 mmHg 88%
    03:00 +8°C° 0 mm 1 m/s 752 mmHg 90%
    04:00 +7°C° 0 mm 0 m/s 752 mmHg 93%
    05:00 +6°C° 0 mm 0 m/s 752 mmHg 95%
    06:00 +7°C° 0 mm 0 m/s 753 mmHg 90%
    07:00 +8°C° 0 mm 0 m/s 753 mmHg 84%
    08:00 +9°C° 0 mm 0 m/s 753 mmHg 79%
    09:00 +11°C° 0 mm 1 m/s 753 mmHg 70%
    10:00 +12°C° 0 mm 2 m/s 753 mmHg 61%
    11:00 +13°C° 0 mm 2 m/s 753 mmHg 51%
    12:00 +12°C° 0.1 mm 3 m/s 753 mmHg 51%
    13:00 +13°C° 0.1 mm 3 m/s 753 mmHg 50%
    14:00 +13°C° 0.1 mm 3 m/s 753 mmHg 49%
    15:00 +13°C° 0 mm 3 m/s 753 mmHg 49%
    16:00 +14°C° 0 mm 2 m/s 753 mmHg 49%
    17:00 +14°C° 0 mm 2 m/s 752 mmHg 49%
    18:00 +12°C° 0 mm 2 m/s 753 mmHg 53%
    19:00 +10°C° 0 mm 2 m/s 753 mmHg 57%
    20:00 +8°C° 0 mm 2 m/s 753 mmHg 61%
    21:00 +8°C° 0 mm 2 m/s 753 mmHg 60%
    22:00 +7°C° 0 mm 2 m/s 753 mmHg 59%
    23:00 +7°C° 0 mm 2 m/s 753 mmHg 57%

    Poimâine, 21 Aprilie, Duminică

    Timp Temperatura Precipitaţii Vânt Presiune Umiditate
    00:00 +7°C° 0 mm 2 m/s 753 mmHg 57%
    01:00 +6°C° 0 mm 2 m/s 753 mmHg 57%
    02:00 +7°C° 0 mm 1 m/s 753 mmHg 56%
    03:00 +8°C° 0 mm 1 m/s 753 mmHg 56%
    04:00 +8°C° 0 mm 1 m/s 753 mmHg 56%
    05:00 +8°C° 0 mm 1 m/s 752 mmHg 56%
    06:00 +9°C° 0 mm 1 m/s 752 mmHg 56%
    07:00 +10°C° 0 mm 1 m/s 752 mmHg 55%
    08:00 +12°C° 0 mm 1 m/s 752 mmHg 55%
    09:00 +13°C° 0 mm 1 m/s 752 mmHg 51%
    10:00 +15°C° 0 mm 1 m/s 752 mmHg 48%
    11:00 +15°C° 0 mm 0 m/s 751 mmHg 44%
    12:00 +18°C° 0 mm 1 m/s 751 mmHg 43%
    13:00 +18°C° 0 mm 1 m/s 750 mmHg 42%
    14:00 +19°C° 0 mm 1 m/s 750 mmHg 41%
    15:00 +18°C° 0 mm 1 m/s 750 mmHg 42%
    16:00 +18°C° 0 mm 1 m/s 749 mmHg 43%
    17:00 +18°C° 0 mm 1 m/s 749 mmHg 43%
    18:00 +15°C° 0 mm 1 m/s 749 mmHg 48%
    19:00 +14°C° 0 mm 1 m/s 749 mmHg 53%
    20:00 +12°C° 0 mm 2 m/s 749 mmHg 59%
    21:00 +10°C° 0 mm 2 m/s 750 mmHg 61%
    22:00 +10°C° 0 mm 2 m/s 750 mmHg 64%
    23:00 +9°C° 0 mm 2 m/s 750 mmHg 66%

    22 Aprilie, Luni

    Timp Temperatura Precipitaţii Vânt Presiune Umiditate
    00:00 +9°C° 0 mm 2 m/s 750 mmHg 68%
    01:00 +8°C° 0 mm 2 m/s 750 mmHg 69%
    02:00 +8°C° 0 mm 2 m/s 750 mmHg 71%
    03:00 +8°C° 0 mm 2 m/s 750 mmHg 71%
    04:00 +7°C° 0 mm 2 m/s 750 mmHg 71%
    05:00 +7°C° 0 mm 2 m/s 750 mmHg 72%
    06:00 +9°C° 0 mm 2 m/s 750 mmHg 68%
    07:00 +11°C° 0 mm 1 m/s 750 mmHg 65%
    08:00 +13°C° 0 mm 1 m/s 750 mmHg 62%
    09:00 +14°C° 0 mm 2 m/s 750 mmHg 57%
    10:00 +16°C° 0 mm 3 m/s 750 mmHg 51%
    11:00 +18°C° 0 mm 3 m/s 750 mmHg 46%
    12:00 +18°C° 0 mm 4 m/s 750 mmHg 45%
    13:00 +19°C° 0 mm 4 m/s 749 mmHg 44%
    14:00 +20°C° 0 mm 4 m/s 749 mmHg 44%
    15:00 +19°C° 0 mm 4 m/s 749 mmHg 46%
    16:00 +19°C° 0 mm 4 m/s 749 mmHg 49%
    17:00 +19°C° 0 mm 4 m/s 749 mmHg 51%
    18:00 +17°C° 0 mm 4 m/s 749 mmHg 57%
    19:00 +14°C° 0 mm 4 m/s 749 mmHg 63%
    20:00 +12°C° 0 mm 4 m/s 749 mmHg 69%
    21:00 +11°C° 0 mm 3 m/s 750 mmHg 71%
    22:00 +10°C° 0 mm 3 m/s 750 mmHg 74%
    23:00 +10°C° 0 mm 3 m/s 750 mmHg 76%

    23 Aprilie, Marţi

    Timp Temperatura Precipitaţii Vânt Presiune Umiditate
    00:00 +9°C° 0 mm 3 m/s 750 mmHg 75%
    01:00 +9°C° 0 mm 3 m/s 750 mmHg 75%
    02:00 +9°C° 0 mm 3 m/s 750 mmHg 74%
    03:00 +9°C° 0 mm 2 m/s 751 mmHg 73%
    04:00 +9°C° 0 mm 2 m/s 751 mmHg 72%
    05:00 +9°C° 0 mm 2 m/s 751 mmHg 71%
    06:00 +9°C° 0 mm 2 m/s 751 mmHg 72%
    07:00 +9°C° 0 mm 2 m/s 751 mmHg 72%
    08:00 +10°C° 0 mm 2 m/s 751 mmHg 72%
    09:00 +11°C° 0 mm 3 m/s 751 mmHg 68%
    10:00 +13°C° 0 mm 3 m/s 751 mmHg 64%
    11:00 +16°C° 0 mm 3 m/s 751 mmHg 60%
    12:00 +16°C° 0.1 mm 3 m/s 751 mmHg 60%
    13:00 +17°C° 0.1 mm 3 m/s 750 mmHg 60%
    14:00 +17°C° 0.1 mm 3 m/s 750 mmHg 59%
    15:00 +17°C° 0.1 mm 3 m/s 750 mmHg 60%
    16:00 +17°C° 0.1 mm 3 m/s 749 mmHg 61%
    17:00 +17°C° 0.1 mm 3 m/s 749 mmHg 62%
    18:00 +16°C° 0 mm 3 m/s 749 mmHg 66%
    19:00 +13°C° 0 mm 3 m/s 749 mmHg 70%
    20:00 +12°C° 0 mm 3 m/s 750 mmHg 73%
    21:00 +13°C° 0 mm 2 m/s 750 mmHg 74%
    22:00 +12°C° 0 mm 2 m/s 750 mmHg 75%
    23:00 +12°C° 0 mm 1 m/s 750 mmHg 75%

    24 Aprilie, Miercuri

    Timp Temperatura Precipitaţii Vânt Presiune Umiditate
    00:00 +12°C° 0.2 mm 1 m/s 751 mmHg 79%
    01:00 +11°C° 0.2 mm 1 m/s 751 mmHg 82%
    02:00 +11°C° 0.2 mm 1 m/s 751 mmHg 85%
    03:00 +10°C° 0 mm 1 m/s 751 mmHg 87%
    04:00 +10°C° 0 mm 1 m/s 751 mmHg 88%
    05:00 +9°C° 0 mm 1 m/s 751 mmHg 90%
    06:00 +10°C° 0 mm 1 m/s 752 mmHg 86%
    07:00 +12°C° 0 mm 1 m/s 752 mmHg 82%
    08:00 +13°C° 0 mm 1 m/s 752 mmHg 78%
    09:00 +14°C° 0 mm 2 m/s 752 mmHg 74%
    10:00 +16°C° 0 mm 2 m/s 752 mmHg 70%
    11:00 +17°C° 0 mm 3 m/s 752 mmHg 66%
    12:00 +18°C° 0 mm 3 m/s 752 mmHg 64%
    13:00 +19°C° 0 mm 3 m/s 751 mmHg 62%
    14:00 +20°C° 0 mm 3 m/s 751 mmHg 61%
    15:00 +20°C° 0 mm 4 m/s 751 mmHg 63%
    16:00 +20°C° 0 mm 4 m/s 751 mmHg 65%
    17:00 +20°C° 0 mm 4 m/s 751 mmHg 67%
    18:00 +18°C° 0 mm 4 m/s 751 mmHg 72%
    19:00 +17°C° 0 mm 3 m/s 751 mmHg 77%
    20:00 +14°C° 0 mm 3 m/s 751 mmHg 82%
    21:00 +13°C° 0 mm 3 m/s 752 mmHg 84%
    22:00 +14°C° 0 mm 2 m/s 752 mmHg 86%
    23:00 +13°C° 0 mm 2 m/s 752 mmHg 87%
    Arată mai mult